Regional Weather Roundup
Issued by NWS

Home | Current Version | Previous Version | Text Only | Print | Product List | Glossary Off
Versions: 1 2 3 4 5 6 7 8 9 10 11 12 13 14 15 16 17 18 19 20 21 22 23 24 25 26 27 28 29 30 31 32 33 34 35 36 37 38 39 40 41 42 43 44 45 46 47 48 49 50

000
ASUS44 KMEG 150510
RWRTN
TENNESSEE HOURLY STATE WEATHER ROUNDUP
NATIONAL WEATHER SERVICE MEMPHIS TN
1200 AM CDT MON SEP 15 2014

TNZ002-004-019-021-049-052-054-088>092-150600-
WEST TENNESSEE

CITY           SKY/WX    TMP DP  RH WIND       PRES   REMARKS
MEMPHIS INTL   PTCLDY    67  58  72 NE3       30.19S
NWS MEMPHIS      N/A     61 N/A N/A MISG        N/A
JACKSON        PTCLDY    58  56  93 CALM      30.19S
DYERSBURG      PTCLDY    57  46  67 CALM      30.20S
UNION CITY     CLEAR     55  54  94 CALM      30.19R
PARIS          CLEAR     54  50  87 CALM      30.20S
LEXINGTON      CLEAR     57  55  94 CALM      30.18F
SAVANNAH       CLEAR     57  57 100 CALM      30.19F
$$

TNZ008-025-027-028-033-062-065-066-150600-
NORTH MIDDLE TENNESSEE

CITY           SKY/WX    TMP DP  RH WIND       PRES   REMARKS
NASHVILLE      PTCLDY    62  56  80 CALM      30.21S
DICKSON        CLEAR     57  54  88 CALM      30.20S
PORTLAND       CLEAR     54  54 100 CALM      30.20S
CLARKSVILLE    CLEAR     57  53  86 CALM      30.20F
LEBANON        CLEAR     57  56  97 CALM      30.19S
SMYRNA         CLEAR     58  57  96 CALM      30.21S
MURFREESBORO   CLEAR     61  58  90 CALM      30.20S
COOKEVILLE       N/A     55  55 100 CALM      30.20S VSB 1/2
GALLATIN       CLEAR     58  57  96 CALM      30.21S
CROSSVILLE     PTCLDY    62  58  86 CALM      30.23F FOG
$$

TNZ061-075-076-078-094-096-097-150600-
SOUTH MIDDLE TENNESSEE

CITY           SKY/WX    TMP DP  RH WIND       PRES   REMARKS
LEWISBURG      CLEAR     57  56  97 CALM      30.19F
FAYETTEVILLE     N/A     63  57  82 NE5       30.19F
TULLAHOMA      CLEAR     61  57  88 CALM      30.21F
WINCHESTER     CLEAR     61  61 100 CALM      30.20F
MCMINNVILLE    CLEAR     61  61 100 CALM      30.21S
COLUMBIA       CLEAR     59  59 100 CALM      30.18F
SHELBYVILLE    CLEAR     61  59  94 CALM      30.21S
$$

TNZ017-018-042-046-047-150600-
NORTHEAST TENNESSEE

CITY           SKY/WX    TMP DP  RH WIND       PRES   REMARKS
TRI CITIES     PTCLDY    61  59  93 CALM      30.22S FOG
ELIZABETHTON   PTCLDY    61  59  94 E3        30.22F
$$

TNZ012-013-036-069-073-074-150600-
CENTRAL EAST TENNESSEE

CITY           SKY/WX    TMP DP  RH WIND       PRES   REMARKS
KNOXVILLE      PTCLDY    66  64  93 CALM      30.18S
OAK RIDGE      MOCLDY    67  65  93 CALM      30.21S
GATLINBURG     CLEAR     63  63 100 CALM      30.20S
MORRISTOWN     CLEAR     63  61  94 CALM      30.22S
$$

TNZ083-085-099-150600-
SOUTHEAST TENNESSEE

CITY           SKY/WX    TMP DP  RH WIND       PRES   REMARKS
CHATTANOOGA    CLEAR     70  65  84 S6        30.20S
$$

SKY/WX REPORTED AS FAIR MEANS FEW OR NO CLOUDS BELOW
12 THOUSAND FEET.



USA.gov is the U.S. government's official web portal to all federal, state and local government web resources and services.